Vertical_Velocity
-1 0 -2 -2 -0 -1 -2 -2 -2 -2 -5 -1 1 -2 -2 -3 2 -3 -4 12 -9 -0 -4 1 1 2 0 -5 -1 11 8 -7 -12 2 -11 -9 33 2 -18 -20 -2 11 4 2 -6
-1 -1 -2 -1 -1 -2 -2 2 -1 -1 -4 -1 -3 -4 0 -5 -5 1 -5 0 4 -1 -0 0 3 4 -2 -1 -8 1 1 -17 3 0 -16 -10 51 3 2 -2 21 -7 -6 4 3
-1 0 0 -1 -2 -1 -0 -1 -0 -2 -0 1 -2 -4 -1 -1 -1 -24 -2 1 -3 2 -1 2 3 6 -3 3 4 -10 -35 15 -16 -14 14 18 -3 42 -14 -8 -24 15 -12 0 1
-0 -1 -1 -1 -0 -2 -2 -2 -1 -4 -3 -1 -4 -4 -3 -4 3 -4 -4 -3 0 2 1 4 4 -5 -1 -11 9 -3 -11 7 -9 -5 11 9 -2 2 27 11 6 28 1 -2 -6
-2 -2 -1 -1 -2 -1 -1 -2 -2 -1 -2 -5 -6 -3 0 -2 -6 9 0 -3 -2 2 1 3 -4 12 -15 5 7 -3 -9 4 -2 -5 -5 9 6 -9 -19 2 -14 14 43 4 1
-1 -1 -2 -1 -2 -3 -1 -2 -3 -3 -3 -3 -4 -4 -7 -7 -5 -3 -4 -1 0 2 2 3 2 8 2 -9 1 6 9 -3 9 -15 -10 6 2 5 -23 -8 1 9 2 18 -5
-2 -1 -3 -3 -4 -5 -7 -7 -6 -6 -7 -8 -8 -7 -1 -4 1 0 6 -1 2 2 1 3 20 32 17 -0 2 -4 17 4 -7 -2 -26 3 -6 -52 16 -9 -13 -13 2 2 1
-2 -3 -3 -3 -2 -4 -3 -2 -3 -4 -4 -4 -7 -5 -7 -8 -5 -0 2 1 4 2 -5 8 -5 -6 -5 14 7 5 15 11 -13 8 -23 23 -35 -24 32 1 -17 -1 -3 -7 -7
-1 -2 -2 -3 -4 -2 -3 -3 -3 -2 -2 -6 -3 -25 -10 -5 0 -3 -4 -1 5 8 10 9 14 6 3 -4 7 9 -7 -2 -0 -4 4 6 -26 -16 16 25 0 -1 -8 1 1
-2 -2 -2 -3 -3 -2 -3 -4 -4 -4 -17 -16 -19 1 1 -8 0 -15 -4 -7 -10 -2 1 -6 10 4 4 12 -25 -16 -4 0 -4 -18 20 -2 -21 -15 -4 25 6 3 14 -9 3
-1 -1 -3 -2 -3 -2 -1 -7 -3 -13 -5 -2 -7 -4 -9 -3 4 2 -5 5 0 7 0 -2 19 -10 -16 -4 3 3 17 -5 -9 3 11 -13 -2 -11 -16 4 -9 7 6 1 17
-2 -3 -3 -3 -3 -6 -5 -6 -4 -3 -5 -6 -14 -7 5 -7 -14 19 -20 6 7 -4 11 15 -15 -19 3 -3 4 12 -2 -2 2 -5 27 17 -17 -2 11 -22 -4 13 -6 -15 3
-2 -3 -3 -2 -3 -1 -4 -5 -2 -5 -6 -7 25 -15 10 -14 4 -23 -13 -0 -4 19 3 7 -29 3 12 6 2 8 1 -1 -4 6 23 5 -18 34 11 7 -0 -1 21 -8 -7
-2 -1 -3 -2 1 -5 -6 -4 -6 -5 -8 -4 -6 -2 -14 9 9 -7 -15 7 18 -13 1 3 -7 16 -4 -6 18 11 6 14 2 25 -1 -7 -21 -2 17 -2 -5 -15 -4 11 -22
-2 -2 -1 -3 -2 -5 -2 -4 -4 -4 -0 -13 -0 -6 -2 22 -3 -11 -6 -14 -5 5 31 -20 19 -6 21 -22 -1 -36 -4 7 31 1 30 -4 43 -48 13 -14 -15 1 6 7 -2
-2 -2 -2 -1 -1 -3 -3 -2 -4 -6 1 -4 -7 -3 -10 2 -16 5 -13 -6 -3 5 5 -12 -9 34 7 -9 32 5 4 6 18 -9 14 -29 14 -19 -16 -1 -2 -11 -14 -4 -6
-1 -2 -2 -3 -3 -1 -2 -8 -5 -3 -12 -3 -11 1 3 -5 -4 -10 -2 8 -3 -12 14 19 12 -14 -13 10 12 -9 44 4 0 6 -6 -1 22 -49 -4 -12 -5 15 47 13 19
-1 -2 -2 -2 -2 -2 -1 -4 1 -6 14 -5 -8 -3 1 -1 0 0 -7 -8 -9 -2 2 -3 0 -1 44 15 3 16 -13 -0 -5 -1 -14 -0 -9 -85 -18 -26 20 4 13 -28 13
-2 -3 -1 -3 -0 -2 -8 -2 -3 1 -2 -5 -2 -13 -0 -7 7 2 3 4 2 2 4 5 1 -7 -1 4 29 -37 33 -27 11 3 2 -2 8 9 13 6 -21 7 19 2 1
-2 -3 -4 -1 -1 -3 -1 -3 -3 -2 -2 -4 11 2 1 1 -4 -8 5 -4 -5 -1 8 -1 -6 -0 -16 1 2 3 9 17 12 3 1 -4 -4 -19 27 44 1 65 8 8 -3
-2 -4 0 0 -2 -2 0 -5 -4 2 -4 -3 -4 -3 -1 6 -3 -4 2 14 -15 -7 7 3 9 -11 -3 -11 5 36 16 1 5 3 1 0 -13 44 -2 10 20 17 7 9 12
-2 -3 -0 -0 -3 -2 -3 -2 -3 1 -3 0 -8 8 1 -3 -3 4 18 -1 -5 -1 -6 -1 3 -1 2 1 -6 -1 1 -3 -0 2 5 3 -6 22 12 6 2 -8 -4 -0 5
-3 -2 -1 -1 -1 -2 -2 -4 -3 -2 5 -1 -1 6 -10 6 1 -6 -1 -13 9 1 -10 -14 -6 -6 -9 26 0 16 -2 -7 1 -4 1 -2 -10 1 11 5 -17 10 -5 0 -1
-4 -1 -2 -2 -2 1 2 -4 -4 -6 -4 -4 -6 -1 11 -7 -9 -2 -12 8 -4 7 -5 -6 -4 11 14 14 4 -3 10 20 -2 0 1 -7 -23 -15 2 2 2 -2 -9 -14 3
-1 -2 -3 -1 -3 -1 4 -2 -1 1 -1 -4 -7 1 8 6 -1 -6 3 -9 -9 11 5 -1 -3 2 -4 -7 -7 -7 -3 -7 14 1 13 -19 -12 3 -1 -11 -43 -18 26 -14 3
-1 -1 -3 -0 3 -1 1 -5 -2 -2 14 -7 -2 7 6 7 8 -2 3 3 2 -15 5 6 -6 -6 -13 -3 -1 15 4 0 -4 -11 -11 2 -12 1 13 9 30 -0 -8 5 9
-0 -4 -1 -0 -1 2 -1 -3 -3 -2 -6 -6 -4 -5 -9 -5 5 -5 -6 -9 0 1 -7 1 1 3 -15 7 -6 -17 -8 -1 4 18 22 12 8 12 -7 -1 20 19 11 -4 -1
Height
3083 3083 3083 3083 3083 3082 3082 3083 3082 3082 3081 3082 3081 3081 3081 3081 3083 3084 3082 3089 3089 3091 3096 3098 3100 3102 3105 3108 3113 3118 3119 3113 3114 3120 3122 3122 3126 3123 3127 3132 3133 3137 3136 3134 3133
3080 3080 3080 3080 3080 3080 3079 3079 3078 3077 3077 3076 3074 3074 3073 3072 3074 3076 3078 3079 3083 3085 3088 3090 3094 3097 3099 3102 3106 3110 3109 3100 3114 3117 3119 3119 3122 3122 3125 3128 3130 3131 3128 3131 3133
3078 3078 3077 3077 3077 3076 3075 3074 3073 3072 3071 3069 3067 3068 3067 3065 3066 3063 3067 3069 3073 3077 3078 3082 3085 3090 3090 3095 3098 3099 3095 3104 3108 3111 3114 3117 3115 3117 3120 3123 3127 3129 3126 3127 3130
3077 3077 3076 3075 3074 3073 3072 3071 3069 3067 3065 3062 3060 3061 3061 3060 3067 3055 3057 3060 3064 3067 3071 3074 3077 3080 3082 3086 3093 3093 3089 3098 3101 3106 3108 3109 3111 3108 3114 3119 3123 3128 3123 3123 3126
3076 3076 3075 3074 3073 3071 3070 3068 3066 3063 3060 3056 3054 3052 3051 3052 3054 3054 3050 3050 3053 3058 3062 3065 3068 3073 3073 3079 3088 3087 3083 3091 3093 3097 3100 3102 3103 3105 3107 3111 3118 3120 3122 3120 3122
3075 3074 3074 3072 3071 3069 3067 3064 3062 3059 3055 3051 3047 3044 3041 3040 3044 3045 3041 3039 3045 3050 3054 3057 3061 3066 3069 3073 3078 3079 3083 3086 3089 3090 3093 3097 3097 3101 3100 3105 3109 3112 3115 3117 3118
3073 3072 3071 3069 3068 3066 3064 3060 3056 3052 3049 3045 3042 3037 3033 3031 3032 3033 3033 3032 3036 3040 3044 3049 3060 3065 3065 3065 3071 3075 3078 3079 3080 3084 3085 3091 3090 3086 3092 3100 3103 3104 3107 3112 3114
3071 3070 3069 3067 3064 3062 3058 3054 3051 3048 3045 3041 3037 3032 3026 3024 3024 3024 3026 3024 3029 3031 3034 3042 3043 3044 3048 3059 3063 3067 3070 3069 3069 3076 3079 3088 3073 3076 3086 3092 3094 3098 3101 3103 3107
3069 3067 3065 3063 3061 3058 3055 3052 3048 3046 3044 3040 3036 3028 3028 3028 3026 3023 3021 3021 3022 3023 3028 3034 3036 3039 3044 3048 3054 3054 3055 3057 3061 3068 3073 3076 3062 3068 3081 3085 3086 3089 3093 3097 3101
3066 3064 3063 3061 3059 3056 3053 3050 3047 3045 3039 3035 3032 3036 3032 3028 3025 3019 3017 3014 3014 3016 3021 3026 3029 3030 3035 3040 3037 3039 3043 3046 3046 3055 3064 3064 3058 3065 3073 3077 3079 3082 3086 3089 3093
3064 3063 3061 3059 3057 3055 3052 3048 3048 3043 3041 3040 3038 3035 3030 3028 3023 3016 3010 3010 3011 3014 3014 3020 3024 3019 3025 3032 3037 3040 3041 3041 3043 3053 3057 3057 3055 3057 3063 3069 3070 3075 3079 3080 3086
3062 3061 3059 3057 3055 3052 3049 3046 3044 3043 3041 3040 3036 3034 3032 3027 3020 3015 3005 3007 3010 3009 3013 3017 3012 3017 3025 3030 3032 3034 3035 3034 3040 3046 3049 3049 3044 3051 3057 3059 3063 3066 3069 3075 3078
3061 3059 3057 3055 3053 3051 3048 3046 3044 3043 3040 3040 3039 3034 3032 3027 3021 3013 3010 3007 3004 3006 3007 3008 3009 3017 3020 3024 3026 3026 3029 3033 3035 3039 3040 3042 3037 3043 3047 3052 3056 3060 3064 3068 3071
3059 3058 3056 3054 3054 3050 3048 3046 3044 3042 3040 3044 3040 3037 3032 3026 3022 3013 3009 3007 3002 3000 3003 3002 3006 3009 3013 3016 3021 3019 3026 3030 3031 3033 3031 3033 3032 3034 3039 3043 3049 3052 3057 3060 3062
3058 3057 3055 3053 3052 3050 3050 3047 3044 3043 3042 3044 3040 3036 3031 3028 3022 3015 3005 2999 2998 3000 3002 2999 3000 3004 3004 3009 3016 3015 3024 3024 3026 3027 3027 3029 3032 3027 3034 3037 3043 3046 3050 3051 3053
3056 3055 3054 3053 3051 3050 3048 3047 3046 3046 3044 3044 3040 3034 3030 3026 3021 3015 3007 3000 2997 2997 2995 2995 2995 2998 3001 3006 3009 3015 3019 3018 3021 3023 3016 3022 3030 3024 3026 3029 3035 3038 3040 3042 3043
3053 3053 3052 3052 3051 3049 3049 3048 3050 3048 3049 3045 3039 3034 3031 3026 3022 3016 3012 3007 3002 2999 2995 2993 2992 2995 2998 2999 3003 3008 3011 3014 3016 3017 3010 3014 3020 3017 3021 3025 3027 3030 3033 3033 3036
3052 3051 3051 3050 3049 3049 3048 3050 3050 3049 3047 3045 3040 3036 3032 3028 3024 3018 3015 3009 3006 3005 2998 2995 2990 2991 2995 2999 2999 3002 3006 3006 3007 3008 3005 3008 3007 3004 3018 3021 3025 3026 3024 3030 3032
3050 3049 3049 3049 3048 3048 3048 3049 3048 3048 3047 3044 3040 3037 3034 3031 3027 3022 3019 3016 3013 3010 3008 2999 2994 2989 2990 2993 2998 2998 2997 3005 3006 3006 3009 3001 3003 3009 3012 3015 3018 3021 3022 3024 3025
3048 3047 3047 3047 3047 3047 3048 3048 3047 3047 3045 3044 3042 3040 3036 3033 3030 3026 3022 3020 3016 3014 3011 3005 2999 2994 2990 2992 2995 2996 2999 3001 3001 3003 3004 3003 3002 3004 3004 3009 3013 3012 3011 3015 3019
3047 3046 3046 3046 3046 3047 3046 3045 3045 3046 3044 3044 3043 3041 3039 3035 3032 3029 3027 3024 3019 3015 3011 3007 3005 3001 2998 2998 2995 2990 2995 2998 2997 3002 2999 3001 2998 3001 3002 3003 3002 3001 3006 3010 3012
3045 3044 3044 3044 3046 3044 3044 3044 3043 3043 3043 3043 3042 3041 3039 3036 3033 3031 3029 3025 3021 3018 3012 3009 3005 3000 2998 2998 2995 2994 2997 3003 3003 3005 3001 3002 3001 2994 3001 3002 3002 3005 3009 3010 3011
3042 3042 3042 3042 3042 3041 3041 3041 3040 3041 3042 3041 3041 3040 3039 3036 3035 3032 3030 3026 3024 3021 3016 3012 3008 3003 2996 2999 2999 3003 3003 3004 3004 3004 3002 3007 2997 2997 3001 2999 2997 3003 3004 3011 3011
3040 3040 3040 3039 3039 3040 3041 3039 3038 3038 3038 3038 3039 3038 3037 3035 3034 3032 3029 3027 3025 3023 3019 3016 3014 3014 3013 3012 3010 3007 3006 3005 3005 3004 3004 3005 2999 2999 2999 2999 3000 3002 3004 3008 3010
3036 3037 3037 3036 3037 3037 3039 3038 3037 3038 3038 3037 3037 3036 3035 3033 3031 3029 3028 3025 3024 3022 3021 3017 3016 3014 3012 3011 3009 3005 3004 3004 3005 3005 3006 3004 3000 3000 3004 3001 3002 3000 3007 3005 3004
3033 3034 3034 3034 3036 3035 3035 3034 3035 3036 3037 3035 3035 3034 3033 3031 3031 3026 3025 3023 3022 3019 3018 3018 3015 3013 3008 3008 3006 3003 3001 3000 3001 3002 3002 3001 2999 2997 3000 3003 3002 3001 3001 3001 3001
3027 3029 3030 3030 3031 3033 3033 3032 3032 3033 3032 3031 3032 3031 3030 3030 3027 3023 3022 3019 3017 3016 3015 3016 3014 3013 3007 3006 3004 2999 2996 2995 2994 2994 2994 2993 2993 2993 2991 2990 2992 2992 2992 2993 2993